Location: Hopewell Observatory
(38.8698°N, 77.6988°W)
Time: 07:42:24
(UTC-04:00)

Amateur Radio Satellites - All Passes

Search period start: 24 April 2014 07:12
Search period end: 25 April 2014 07:12
Location: Hopewell Observatory, 38.8698°N, 77.6988°W

Satellite Date Start Highest point End Downlink Frequencies (MHz)
Time Altitude Azimuth
JAS-2 24 Apr 07:24:17 07:29:02 27° 97° (E) 07:34:13 435.800 - 435.900 CW/SSB, 435.910 FM
RS-15 24 Apr 07:31:01 07:42:14 65° 306° (NW) 07:53:10 29.354 - 29.394 USB, Beacon 29.352 USB
Hamsat 24 Apr 07:43:33 07:47:53 63° 285° (WNW) 07:52:11 145.90 MHz
PCSat 24 Apr 07:54:51 07:58:37 19° 47° (NE) 08:02:23 145.825 MHz
STRAND 1 24 Apr 08:02:56 08:07:08 25° 265° (W) 08:11:20 ?
PANSAT 24 Apr 08:15:12 08:17:50 17° 178° (S) 08:20:27 not established
AO-7 24 Apr 08:27:04 08:30:37 14° 313° (NW) 08:34:10 29.400 - 29.500 MHz
SO-67 24 Apr 08:52:01 08:55:21 43° 285° (WNW) 08:58:40 435.3500 MHz FM
Sapphire 24 Apr 08:52:50 08:58:04 47° 57° (ENE) 09:03:16 437.095 MHz 1200 baud AX-25 AFSK
JAS-2 24 Apr 09:09:01 09:14:11 40° 289° (WNW) 09:19:53 435.800 - 435.900 CW/SSB, 435.910 FM
HO-68 24 Apr 09:14:57 09:20:20 22° 93° (E) 09:25:40 435.675 MHz FM
KITSAT 1 24 Apr 09:27:15 09:32:30 18° 34° (NE) 09:37:44 435.175 FM
PCSat 24 Apr 09:37:10 09:42:34 69° 245° (WSW) 09:47:55 145.825 MHz
RS-15 24 Apr 09:49:05 09:57:16 23° 334° (NNW) 10:05:23 29.354 - 29.394 USB, Beacon 29.352 USB
PANSAT 24 Apr 09:55:22 09:57:24 14° 191° (SSW) 09:59:26 not established
Saudisat 1A 24 Apr 10:17:29 10:21:56 88° 121° (ESE) 10:26:26 436.775 MHz
Sapphire 24 Apr 10:37:02 10:41:08 22° 254° (WSW) 10:45:13 437.095 MHz 1200 baud AX-25 AFSK
HO-68 24 Apr 11:01:23 11:08:29 65° 290° (WNW) 11:15:34 435.675 MHz FM
Oscar 11 24 Apr 11:11:54 11:16:16 75° 284° (WNW) 11:20:37 145.825 FM, Beacon 2401.500 USB
FUNcube-1 24 Apr 11:17:39 11:21:42 38° 98° (E) 11:25:48 145.950 - 145.970 MHz USB
KITSAT 1 24 Apr 11:21:29 11:29:35 67° 58° (ENE) 11:37:35 435.175 FM
Oscar 10/S400 24 Apr 11:28:45 13:09:58 47° 247° (WSW) 18:35:05 145.825 - 145.975 CW/USB, Beacon 145.810 USB
Saudisat 1A 24 Apr 12:00:09 12:02:10 13° 319° (NW) 12:04:12 436.775 MHz
RS-15 24 Apr 12:08:46 12:15:30 17° 11° (NNE) 12:22:14 29.354 - 29.394 USB, Beacon 29.352 USB
HO-68 24 Apr 12:52:26 12:54:49 12° 309° (NW) 12:57:12 435.675 MHz FM
FUNcube-1 24 Apr 12:54:54 12:57:50 18° 293° (WNW) 13:00:49 145.950 - 145.970 MHz USB
AO-27 24 Apr 13:14:03 13:17:18 17° 63° (ENE) 13:20:33 436.795 MHz FM
Oscar 19 24 Apr 13:14:24 13:18:52 31° 68° (ENE) 13:23:22 437.125 CW, 437.150 USB
KITSAT 1 24 Apr 13:18:00 13:24:17 26° 256° (WSW) 13:30:32 435.175 FM
ISS 24 Apr 13:21:43 13:24:52 41° 136° (SE) 13:28:03 145.800 FM
ITAMSAT 1 24 Apr 13:22:47 13:26:28 20° 64° (ENE) 13:30:10 435.822 SSB
Oscar 16 24 Apr 13:23:18 13:28:04 40° 70° (ENE) 13:32:53 437.025 USB, Beacon 2401.1428
SO-50 24 Apr 14:04:17 14:08:18 33° 114° (ESE) 14:12:21 436.795 FM
Uribyol 2 24 Apr 14:08:10 14:13:12 56° 72° (ENE) 14:18:15 436.500 FM
AO-Echo 24 Apr 14:12:19 14:17:15 46° 72° (ENE) 14:22:05 ?
TMSAT-1 24 Apr 14:21:36 14:24:47 16° 62° (ENE) 14:27:57 436.925 FM
RS-15 24 Apr 14:21:54 14:32:05 41° 44° (NE) 14:42:25 29.354 - 29.394 USB, Beacon 29.352 USB
AO-27 24 Apr 14:51:13 14:56:19 59° 259° (W) 15:01:26 436.795 MHz FM
Oscar 19 24 Apr 14:53:41 14:58:09 30° 264° (W) 15:02:40 437.125 CW, 437.150 USB
ISS 24 Apr 14:58:54 15:01:42 24° 333° (NNW) 15:04:30 145.800 FM
ITAMSAT 1 24 Apr 15:00:36 15:05:36 48° 260° (W) 15:10:36 435.822 SSB
Oscar 16 24 Apr 15:03:33 15:07:32 23° 266° (W) 15:11:34 437.025 USB, Beacon 2401.1428
JAS-1B 24 Apr 15:03:57 15:10:11 29° 66° (ENE) 15:15:38 435.800 - 435.900 CW/SSB
Gurwin Techsat 1B 24 Apr 15:14:12 15:19:28 70° 74° (ENE) 15:24:46 435.225 FM
AO-7 24 Apr 15:37:13 15:44:26 35° 60° (ENE) 15:51:40 29.400 - 29.500 MHz
SO-50 24 Apr 15:45:07 15:48:53 26° 311° (NW) 15:52:42 436.795 FM
OPAL 24 Apr 15:47:35 15:52:42 53° 102° (ESE) 15:57:45 ?
Uribyol 2 24 Apr 15:49:54 15:53:00 16° 268° (W) 15:56:08 436.500 FM
AO-Echo 24 Apr 15:52:30 15:56:12 20° 266° (W) 15:59:51 ?
UOSAT-12 24 Apr 15:56:41 16:00:25 26° 112° (ESE) 16:04:14 437.025 FM, 437.400 FM
TMSAT-1 24 Apr 15:58:55 16:04:09 63° 259° (W) 16:09:25 436.925 FM
Uosat F 24 Apr 16:14:04 16:19:03 67° 74° (ENE) 16:24:02 435.120 FM
RS-15 24 Apr 16:34:13 16:44:54 61° 247° (WSW) 16:55:55 29.354 - 29.394 USB, Beacon 29.352 USB
ISS 24 Apr 16:39:09 16:39:22 10° 353° (N) 16:39:34 145.800 FM
JAS-1B 24 Apr 16:53:01 17:00:36 50° 259° (W) 17:07:02 435.800 - 435.900 CW/SSB
Gurwin Techsat 1B 24 Apr 16:57:28 16:59:55 13° 270° (W) 17:02:22 435.225 FM
OPAL 24 Apr 17:27:29 17:31:09 20° 298° (WNW) 17:34:48 ?
AO-7 24 Apr 17:28:54 17:36:53 52° 258° (WSW) 17:44:56 29.400 - 29.500 MHz
UOSAT-12 24 Apr 17:36:15 17:40:24 34° 309° (NW) 17:44:40 437.025 FM, 437.400 FM
Uosat F 24 Apr 17:56:07 17:58:16 13° 269° (W) 18:00:26 435.120 FM
ISS 24 Apr 18:16:00 18:17:20 12° 13° (NNE) 18:18:39 145.800 FM
Hamsat 24 Apr 18:35:34 18:39:46 78° 76° (ENE) 18:44:02 145.90 MHz
STRAND 1 24 Apr 18:36:59 18:39:07 13° 91° (E) 18:41:16 ?
Saudisat 1A 24 Apr 18:45:40 18:49:57 47° 54° (NE) 18:54:11 436.775 MHz
JAS-2 24 Apr 19:20:00 19:25:38 73° 75° (ENE) 19:30:52 435.800 - 435.900 CW/SSB, 435.910 FM
SO-67 24 Apr 19:24:15 19:27:35 45° 75° (ENE) 19:30:57 435.3500 MHz FM
HO-68 24 Apr 19:44:21 19:48:21 16° 55° (NE) 19:52:20 435.675 MHz FM
ISS 24 Apr 19:51:37 19:54:47 38° 32° (NNE) 19:57:57 145.800 FM
STRAND 1 24 Apr 20:13:42 20:18:47 69° 286° (WNW) 20:23:50 ?
Saudisat 1A 24 Apr 20:26:26 20:29:09 16° 251° (WSW) 20:31:51 436.775 MHz
MaSat-1 24 Apr 20:55:15 20:58:03 62° 295° (WNW) 21:00:35 437.345 MHz
JAS-2 24 Apr 21:09:09 21:11:11 12° 269° (W) 21:13:10 435.800 - 435.900 CW/SSB, 435.910 FM
HO-68 24 Apr 21:27:51 21:34:59 84° 73° (ENE) 21:42:11 435.675 MHz FM
ISS 24 Apr 21:28:41 21:31:21 22° 228° (SW) 21:33:59 145.800 FM
Oscar 11 24 Apr 22:05:33 22:09:50 72° 76° (ENE) 22:14:09 145.825 FM, Beacon 2401.500 USB
FUNcube-1 24 Apr 22:13:43 22:17:11 26° 70° (ENE) 22:20:38 145.950 - 145.970 MHz USB
PCSat 24 Apr 22:36:20 22:39:56 18° 105° (ESE) 22:43:32 145.825 MHz
SO-50 24 Apr 22:36:59 22:40:49 25° 48° (NE) 22:44:42 436.795 FM
HO-68 24 Apr 23:19:25 23:23:27 16° 270° (W) 23:27:31 435.675 MHz FM
Sapphire 24 Apr 23:33:13 23:38:30 57° 113° (ESE) 23:43:48 437.095 MHz 1200 baud AX-25 AFSK
FUNcube-1 24 Apr 23:50:13 23:53:33 23° 265° (W) 23:56:54 145.950 - 145.970 MHz USB
SO-50 25 Apr 00:17:09 00:21:30 39° 245° (WSW) 00:25:53 436.795 FM
PCSat 25 Apr 00:17:32 00:22:50 57° 301° (WNW) 00:28:12 145.825 MHz
UOSAT-12 25 Apr 00:27:16 00:30:43 20° 45° (NE) 00:34:09 437.025 FM, 437.400 FM
Sapphire 25 Apr 01:18:09 01:22:17 22° 312° (NW) 01:26:26 437.095 MHz 1200 baud AX-25 AFSK
OPAL 25 Apr 01:28:00 01:28:21 10° 56° (NE) 01:28:41 ?
Oscar 19 25 Apr 01:29:21 01:31:03 12° 90° (E) 01:32:45 437.125 CW, 437.150 USB
Oscar 16 25 Apr 01:37:30 01:40:35 16° 92° (E) 01:43:39 437.025 USB, Beacon 2401.1428
KITSAT 1 25 Apr 01:47:58 01:55:47 55° 112° (ESE) 02:03:39 435.175 FM
UOSAT-12 25 Apr 02:06:35 02:11:13 55° 243° (WSW) 02:15:46 437.025 FM, 437.400 FM
AO-Echo 25 Apr 02:22:28 02:25:04 15° 92° (E) 02:27:39 ?
Uribyol 2 25 Apr 02:22:54 02:26:54 22° 94° (E) 02:30:53 436.500 FM
OPAL 25 Apr 03:01:18 03:06:20 81° 73° (ENE) 03:11:30 ?
AO-27 25 Apr 03:05:29 03:10:35 56° 101° (E) 03:15:39 436.795 MHz FM
Oscar 19 25 Apr 03:05:43 03:10:56 77° 285° (WNW) 03:16:06 437.125 CW, 437.150 USB
ITAMSAT 1 25 Apr 03:14:32 03:19:42 67° 102° (ESE) 03:24:50 435.822 SSB
Oscar 16 25 Apr 03:15:11 03:20:17 58° 287° (WNW) 03:25:22 437.025 USB, Beacon 2401.1428
Gurwin Techsat 1B 25 Apr 03:32:08 03:36:49 31° 96° (E) 03:41:28 435.225 FM
KITSAT 1 25 Apr 03:44:11 03:51:29 36° 312° (NW) 03:58:51 435.175 FM
AO-Echo 25 Apr 03:59:35 04:04:10 51° 287° (WNW) 04:08:41 ?
Uribyol 2 25 Apr 04:01:40 04:06:31 41° 290° (WNW) 04:11:21 436.500 FM
TMSAT-1 25 Apr 04:16:02 04:21:15 58° 101° (E) 04:26:27 436.925 FM
Uosat F 25 Apr 04:23:51 04:27:45 23° 95° (E) 04:31:38 435.120 FM
JAS-1B 25 Apr 04:38:33 04:44:02 45° 100° (E) 04:49:58 435.800 - 435.900 CW/SSB
OPAL 25 Apr 04:44:53 04:45:49 10° 269° (W) 04:46:45 ?
AO-27 25 Apr 04:46:15 04:49:38 18° 297° (WNW) 04:53:00 436.795 MHz FM
RS-15 25 Apr 04:46:38 04:55:02 25° 102° (ESE) 05:03:11 29.354 - 29.394 USB, Beacon 29.352 USB
ITAMSAT 1 25 Apr 04:55:46 04:58:36 15° 298° (WNW) 05:01:27 435.822 SSB
Gurwin Techsat 1B 25 Apr 05:12:05 05:16:43 31° 292° (WNW) 05:21:19 435.225 FM
MaSat-1 25 Apr 05:19:34 05:21:26 15° 60° (ENE) 05:23:28 437.345 MHz
AO-7 25 Apr 05:31:25 05:39:38 60° 103° (ESE) 05:47:50 29.400 - 29.500 MHz
KITSAT 1 25 Apr 05:47:42 05:49:49 11° 339° (NNW) 05:51:56 435.175 FM
STRAND 1 25 Apr 05:51:27 05:54:47 18° 63° (ENE) 05:58:07 ?
TMSAT-1 25 Apr 05:57:15 06:00:41 18° 297° (WNW) 06:04:07 436.925 FM
Uosat F 25 Apr 06:02:01 06:06:38 38° 290° (WNW) 06:11:14 435.120 FM
PANSAT 25 Apr 06:12:05 06:13:45 12° 166° (SSE) 06:15:25 not established
Hamsat 25 Apr 06:23:58 06:26:39 16° 92° (E) 06:29:20 145.90 MHz
JAS-1B 25 Apr 06:30:08 06:34:29 23° 295° (WNW) 06:39:03 435.800 - 435.900 CW/SSB
MaSat-1 25 Apr 06:56:50 06:59:44 29° 249° (WSW) 07:03:07 437.345 MHz
